Погода в Давыдове

Россия / Орловская область     52°44′19″N   37°33′47″E
темп.,
°C
ветер,
м/с
пор.,
м/с
влажн.,
%
обл.,
%
осадки,
мм/ч
давл.,
гПа
погр.,
м
16 мая, пн
пн1600:00+7зсз4109589 0.0 1008279
03:00+6зсз6119790 0.0 1008393
06:00+6зсз511925 0.0 1009401
09:00+10сз710685 0.1 1009998
12:00+12сз810545 0.5 10091931
15:00+11зсз696157 0.8 10091282
18:00+11зсз6106567 1.3 10091307
21:00+7з4108299 1.4 1010244
17 мая, вт
вт1700:00+5з5128760 0.0 1010324
03:00+4з512885 0.0 1009379
06:00+5з6148579 0.0 1009506
09:00+9зсз9136998 0.0 10081280
12:00+10зсз81269100 0.1 10081675
15:00+11зсз7116578 0.3 10071589
18:00+9ссз5880100 0.9 1007729
21:00+7сз3891100 1.1 1007294
18 мая, ср
ср1800:00+5зсз5109392 0.0 1007483
03:00+6зсз61197100 0.7 1006516
06:00+6ссз6109596 0.3 1007603
09:00+7ссз698897 0.4 1009707
12:00+9с6979100 0.1 10111161
15:00+11с597179 0.4 10111230
18:00+12с486314 0.1 10121532
21:00+8ссз41184100 0.4 1015305
19 мая, чт
чт1900:00+6ссз511925 0.0 1017371
03:00+4сз49956 0.0 1018244
06:00+4зсз4988100 0.0 1018266
09:00+9з71271100 0.0 1016816
12:00+13зсз101357100 0.0 10141742
15:00+10сз7126798 0.2 10161337
18:00+10сз5970100 0.1 10161066
21:00+6ссз338616 0.1 101839
20 мая, пт
пт2000:00+4с22925 0.0 101920
03:00+4сз22895 0.0 101910
06:00+5з22855 0.0 102063
09:00+10зсз346613 0.0 1019707
12:00+13зсз3551100 0.1 10182082
15:00+13зсз455599 0.4 10161571
18:00+13з2461100 0.1 1014797
21:00+9ююв1171100 0.1 101310